www.cux-wetter.de
Wetterdaten: Freitag, 07.09.2012
Datum Zeit Temp. A. Feuchte A. Luftdruck Regen Wind Richtung Richtung Sonnenschein Solar Taupunkt Windchill Windben
07.09.2012 00:00 15,0 C 73 % 1020,5 hPa 0,0 l/m 27,3 km/h (5 Bft) W-NW 285 0 min 0 W/m 10,2 C 8,2 C 27,3 km/h (5 Bft)
07.09.2012 00:15 15,0 C 74 % 1019,5 hPa 0,0 l/m 28,7 km/h (5 Bft) W-NW 285 0 min 0 W/m 10,4 C 7,9 C 28,7 km/h (5 Bft)
07.09.2012 00:30 15,0 C 73 % 1019,5 hPa 0,0 l/m 26,0 km/h (4 Bft) W 280 0 min 0 W/m 10,2 C 8,4 C 26,0 km/h (4 Bft)
07.09.2012 00:45 15,0 C 74 % 1019,5 hPa 0,0 l/m 29,0 km/h (5 Bft) W-NW 290 0 min 0 W/m 10,4 C 7,9 C 29,0 km/h (5 Bft)
07.09.2012 01:00 15,0 C 74 % 1019,5 hPa 0,0 l/m 33,7 km/h (5 Bft) W 280 0 min 0 W/m 10,4 C 7,1 C 33,7 km/h (5 Bft)
07.09.2012 01:15 15,0 C 74 % 1019,5 hPa 0,0 l/m 29,5 km/h (5 Bft) W 280 0 min 0 W/m 10,4 C 7,8 C 29,5 km/h (5 Bft)
07.09.2012 01:30 15,0 C 75 % 1018,5 hPa 0,0 l/m 35,1 km/h (5 Bft) W-NW 295 0 min 0 W/m 10,6 C 6,9 C 35,1 km/h (5 Bft)
07.09.2012 01:45 15,0 C 75 % 1018,5 hPa 0,0 l/m 31,3 km/h (5 Bft) W 275 0 min 0 W/m 10,6 C 7,5 C 31,3 km/h (5 Bft)
07.09.2012 02:00 15,0 C 75 % 1018,5 hPa 0,0 l/m 32,1 km/h (5 Bft) W 280 0 min 0 W/m 10,6 C 7,4 C 32,1 km/h (5 Bft)
07.09.2012 02:15 15,0 C 76 % 1018,5 hPa 0,0 l/m 33,3 km/h (5 Bft) W-NW 285 0 min 0 W/m 10,8 C 7,2 C 33,3 km/h (5 Bft)
07.09.2012 02:30 15,0 C 76 % 1018,5 hPa 0,0 l/m 34,0 km/h (5 Bft) W-NW 285 0 min 0 W/m 10,8 C 7,1 C 34,0 km/h (5 Bft)
07.09.2012 02:45 15,0 C 76 % 1018,5 hPa 0,0 l/m 31,3 km/h (5 Bft) W-NW 285 0 min 0 W/m 10,8 C 7,5 C 31,3 km/h (5 Bft)
07.09.2012 03:00 15,0 C 77 % 1018,5 hPa 0,0 l/m 32,9 km/h (5 Bft) W-NW 290 0 min 0 W/m 11,0 C 7,2 C 32,9 km/h (5 Bft)
07.09.2012 03:15 15,0 C 77 % 1017,5 hPa 0,0 l/m 32,9 km/h (5 Bft) W-NW 285 0 min 0 W/m 11,0 C 7,2 C 32,9 km/h (5 Bft)
07.09.2012 03:30 15,1 C 78 % 1017,5 hPa 0,0 l/m 30,5 km/h (5 Bft) W 275 0 min 0 W/m 11,3 C 7,7 C 30,5 km/h (5 Bft)
07.09.2012 03:45 15,2 C 79 % 1017,5 hPa 0,0 l/m 36,0 km/h (5 Bft) W-NW 295 0 min 0 W/m 11,6 C 7,1 C 36,0 km/h (5 Bft)
07.09.2012 04:00 15,3 C 79 % 1017,5 hPa 0,0 l/m 30,5 km/h (5 Bft) W-NW 290 0 min 0 W/m 11,7 C 8,0 C 30,5 km/h (5 Bft)
07.09.2012 04:15 15,4 C 80 % 1017,5 hPa 0,0 l/m 36,0 km/h (5 Bft) W-NW 295 0 min 0 W/m 12,0 C 7,4 C 36,0 km/h (5 Bft)
07.09.2012 04:30 15,5 C 80 % 1017,5 hPa 0,0 l/m 28,5 km/h (5 Bft) W 280 0 min 0 W/m 12,1 C 8,6 C 28,5 km/h (5 Bft)
07.09.2012 04:45 15,6 C 81 % 1017,5 hPa 0,0 l/m 33,0 km/h (5 Bft) W-NW 295 0 min 0 W/m 12,3 C 8,1 C 33,0 km/h (5 Bft)
07.09.2012 05:00 15,7 C 81 % 1017,5 hPa 0,0 l/m 33,6 km/h (5 Bft) W-NW 290 0 min 0 W/m 12,4 C 8,1 C 33,6 km/h (5 Bft)
07.09.2012 05:15 15,8 C 82 % 1016,5 hPa 0,0 l/m 32,4 km/h (5 Bft) W 280 0 min 0 W/m 12,7 C 8,4 C 32,4 km/h (5 Bft)
07.09.2012 05:30 15,9 C 82 % 1016,5 hPa 0,0 l/m 26,8 km/h (4 Bft) W-NW 290 0 min 0 W/m 12,8 C 9,5 C 26,8 km/h (4 Bft)
07.09.2012 05:45 16,0 C 83 % 1016,5 hPa 0,0 l/m 30,6 km/h (5 Bft) W-NW 285 0 min 0 W/m 13,1 C 9,0 C 30,6 km/h (5 Bft)
07.09.2012 06:00 16,0 C 83 % 1016,5 hPa 0,0 l/m 30,0 km/h (5 Bft) W-NW 285 0 min 0 W/m 13,1 C 9,1 C 30,0 km/h (5 Bft)
07.09.2012 06:15 16,1 C 84 % 1016,5 hPa 0,0 l/m 27,7 km/h (5 Bft) W-NW 285 0 min 0 W/m 13,4 C 9,6 C 27,7 km/h (5 Bft)
07.09.2012 06:30 16,2 C 84 % 1016,5 hPa 0,0 l/m 26,0 km/h (4 Bft) W 280 0 min 0 W/m 13,5 C 10,0 C 26,0 km/h (4 Bft)
07.09.2012 06:45 16,3 C 85 % 1016,5 hPa 0,0 l/m 20,6 km/h (4 Bft) NW 305 0 min 0 W/m 13,8 C 11,3 C 20,6 km/h (4 Bft)
07.09.2012 06:59 16,3 C 85 % 1016,5 hPa 0,0 l/m 29,5 km/h (5 Bft) W-NW 290 0 min 0 W/m 13,8 C 9,6 C 29,5 km/h (5 Bft)
07.09.2012 07:15 16,2 C 85 % 1016,5 hPa 0,0 l/m 22,9 km/h (4 Bft) W-NW 285 0 min 0 W/m 13,7 C 10,7 C 22,9 km/h (4 Bft)
07.09.2012 07:29 16,3 C 85 % 1017,5 hPa 0,0 l/m 26,2 km/h (4 Bft) W 275 0 min 0 W/m 13,8 C 10,1 C 26,2 km/h (4 Bft)
07.09.2012 07:45 16,3 C 86 % 1017,5 hPa 0,0 l/m 27,7 km/h (5 Bft) W-NW 285 0 min 0 W/m 14,0 C 9,9 C 27,7 km/h (5 Bft)
07.09.2012 08:00 16,4 C 86 % 1017,5 hPa 0,0 l/m 20,7 km/h (4 Bft) W 280 0 min 0 W/m 14,1 C 11,4 C 20,7 km/h (4 Bft)
07.09.2012 08:14 16,4 C 86 % 1016,5 hPa 0,0 l/m 21,5 km/h (4 Bft) W-NW 295 0 min 0 W/m 14,1 C 11,2 C 21,5 km/h (4 Bft)
07.09.2012 08:29 16,4 C 86 % 1017,5 hPa 0,0 l/m 21,5 km/h (4 Bft) W-NW 295 0 min 0 W/m 14,1 C 11,2 C 21,5 km/h (4 Bft)
07.09.2012 08:45 16,4 C 86 % 1017,5 hPa 0,0 l/m 25,5 km/h (4 Bft) W 280 0 min 0 W/m 14,1 C 10,4 C 25,5 km/h (4 Bft)
07.09.2012 09:00 16,4 C 86 % 1017,5 hPa 0,0 l/m 25,4 km/h (4 Bft) W 280 0 min 0 W/m 14,1 C 10,4 C 25,4 km/h (4 Bft)
07.09.2012 09:14 16,6 C 86 % 1017,5 hPa 0,0 l/m 27,1 km/h (5 Bft) W 275 0 min 0 W/m 14,2 C 10,4 C 27,1 km/h (5 Bft)
07.09.2012 09:30 16,7 C 85 % 1017,5 hPa 0,0 l/m 28,0 km/h (5 Bft) W 280 0 min 0 W/m 14,2 C 10,4 C 28,0 km/h (5 Bft)
07.09.2012 09:45 16,9 C 85 % 1017,5 hPa 0,0 l/m 26,0 km/h (4 Bft) W 280 0 min 0 W/m 14,4 C 11,0 C 26,0 km/h (4 Bft)
07.09.2012 10:00 17,2 C 85 % 1017,5 hPa 0,0 l/m 24,8 km/h (4 Bft) W 275 0 min 0 W/m 14,7 C 11,6 C 24,8 km/h (4 Bft)
07.09.2012 10:15 17,2 C 85 % 1017,5 hPa 0,0 l/m 28,0 km/h (5 Bft) W 275 0 min 0 W/m 14,7 C 11,1 C 28,0 km/h (5 Bft)
07.09.2012 10:30 17,1 C 86 % 1017,5 hPa 0,0 l/m 25,9 km/h (4 Bft) W-NW 285 0 min 0 W/m 14,7 C 11,3 C 25,9 km/h (4 Bft)
07.09.2012 10:45 17,0 C 87 % 1017,5 hPa 0,0 l/m 22,1 km/h (4 Bft) W 280 0 min 0 W/m 14,8 C 11,9 C 22,1 km/h (4 Bft)
07.09.2012 11:00 17,0 C 87 % 1017,5 hPa 0,0 l/m 22,8 km/h (4 Bft) W-NW 290 0 min 0 W/m 14,8 C 11,7 C 22,8 km/h (4 Bft)
07.09.2012 11:15 17,1 C 88 % 1017,5 hPa 0,0 l/m 23,7 km/h (4 Bft) W-NW 285 0 min 0 W/m 15,1 C 11,7 C 23,7 km/h (4 Bft)
07.09.2012 11:30 17,0 C 89 % 1017,5 hPa 0,3 l/m 21,0 km/h (4 Bft) NW 305 0 min 0 W/m 15,2 C 12,1 C 21,0 km/h (4 Bft)
07.09.2012 11:45 17,0 C 89 % 1018,5 hPa 0,0 l/m 29,1 km/h (5 Bft) NW 315 0 min 0 W/m 15,2 C 10,6 C 29,1 km/h (5 Bft)
07.09.2012 12:00 17,0 C 89 % 1018,5 hPa 0,0 l/m 29,8 km/h (5 Bft) NW 320 0 min 0 W/m 15,2 C 10,5 C 29,8 km/h (5 Bft)
07.09.2012 12:15 17,3 C 89 % 1018,5 hPa 0,0 l/m 28,6 km/h (5 Bft) NW 315 0 min 0 W/m 15,5 C 11,1 C 28,6 km/h (5 Bft)
07.09.2012 12:30 17,4 C 88 % 1018,5 hPa 0,0 l/m 24,6 km/h (4 Bft) NW 325 0 min 0 W/m 15,4 C 11,9 C 24,6 km/h (4 Bft)
07.09.2012 12:45 17,5 C 89 % 1018,5 hPa 0,0 l/m 30,7 km/h (5 Bft) NW 320 0 min 0 W/m 15,7 C 11,1 C 30,7 km/h (5 Bft)
07.09.2012 13:00 18,2 C 88 % 1018,5 hPa 0,0 l/m 27,3 km/h (5 Bft) NW 315 0 min 0 W/m 16,2 C 12,6 C 27,3 km/h (5 Bft)
07.09.2012 13:15 17,8 C 86 % 1018,5 hPa 0,0 l/m 29,0 km/h (5 Bft) NW 315 0 min 0 W/m 15,4 C 11,8 C 29,0 km/h (5 Bft)
07.09.2012 13:30 17,9 C 86 % 1018,5 hPa 0,0 l/m 23,4 km/h (4 Bft) N-NW 330 0 min 0 W/m 15,5 C 12,8 C 23,4 km/h (4 Bft)
07.09.2012 13:45 17,6 C 87 % 1018,5 hPa 0,0 l/m 33,0 km/h (5 Bft) NW 320 0 min 0 W/m 15,4 C 10,9 C 33,0 km/h (5 Bft)
07.09.2012 13:59 17,5 C 87 % 1018,5 hPa 0,0 l/m 28,8 km/h (5 Bft) NW 320 0 min 0 W/m 15,3 C 11,4 C 28,8 km/h (5 Bft)
07.09.2012 14:15 17,2 C 89 % 1018,5 hPa 0,6 l/m 23,0 km/h (4 Bft) NW 325 0 min 0 W/m 15,4 C 12,0 C 23,0 km/h (4 Bft)
07.09.2012 14:30 17,2 C 90 % 1018,5 hPa 0,0 l/m 26,0 km/h (4 Bft) NW 320 0 min 0 W/m 15,5 C 11,4 C 26,0 km/h (4 Bft)
07.09.2012 14:44 17,3 C 90 % 1018,5 hPa 0,0 l/m 29,6 km/h (5 Bft) NW 305 0 min 0 W/m 15,6 C 11,0 C 29,6 km/h (5 Bft)
07.09.2012 14:59 17,6 C 89 % 1018,5 hPa 0,0 l/m 28,6 km/h (5 Bft) N-NW 330 0 min 0 W/m 15,8 C 11,5 C 28,6 km/h (5 Bft)
07.09.2012 15:15 17,6 C 88 % 1018,5 hPa 0,0 l/m 30,2 km/h (5 Bft) N-NW 345 0 min 0 W/m 15,6 C 11,3 C 30,2 km/h (5 Bft)
07.09.2012 15:30 17,8 C 86 % 1018,5 hPa 0,0 l/m 29,7 km/h (5 Bft) N 5 0 min 0 W/m 15,4 C 11,7 C 29,7 km/h (5 Bft)
07.09.2012 15:44 17,4 C 85 % 1018,5 hPa 0,0 l/m 25,6 km/h (4 Bft) NO 55 0 min 0 W/m 14,8 C 11,8 C 25,6 km/h (4 Bft)
07.09.2012 16:00 17,4 C 86 % 1018,5 hPa 0,0 l/m 16,8 km/h (3 Bft) NO 45 0 min 0 W/m 15,0 C 13,6 C 16,8 km/h (3 Bft)
07.09.2012 16:15 17,4 C 85 % 1018,5 hPa 0,0 l/m 15,3 km/h (3 Bft) N 5 0 min 0 W/m 14,8 C 14,0 C 15,3 km/h (3 Bft)
07.09.2012 16:29 17,4 C 85 % 1019,5 hPa 0,0 l/m 14,7 km/h (3 Bft) N-NW 340 0 min 0 W/m 14,8 C 14,2 C 14,7 km/h (3 Bft)
07.09.2012 16:45 17,4 C 85 % 1018,5 hPa 0,0 l/m 12,0 km/h (2 Bft) N-NW 345 0 min 0 W/m 14,8 C 15,0 C 12,0 km/h (2 Bft)
07.09.2012 17:00 17,4 C 85 % 1019,5 hPa 0,0 l/m 14,0 km/h (3 Bft) N-NW 330 0 min 0 W/m 14,8 C 14,4 C 14,0 km/h (3 Bft)
07.09.2012 17:14 17,3 C 85 % 1019,5 hPa 0,0 l/m 9,8 km/h (2 Bft) NW 315 0 min 0 W/m 14,8 C 15,7 C 9,8 km/h (2 Bft)
07.09.2012 17:30 17,4 C 86 % 1019,5 hPa 0,0 l/m 9,8 km/h (2 Bft) NW 315 0 min 0 W/m 15,0 C 15,8 C 9,8 km/h (2 Bft)
07.09.2012 17:45 17,6 C 86 % 1018,5 hPa 0,0 l/m 9,8 km/h (2 Bft) NW 315 0 min 0 W/m 15,2 C 16,1 C 9,8 km/h (2 Bft)
07.09.2012 18:00 17,6 C 85 % 1018,5 hPa 0,0 l/m 9,8 km/h (2 Bft) NW 315 0 min 0 W/m 15,0 C 16,1 C 9,8 km/h (2 Bft)
07.09.2012 18:14 17,5 C 85 % 1019,5 hPa 0,0 l/m 9,8 km/h (2 Bft) NW 315 0 min 0 W/m 14,9 C 16,0 C 9,8 km/h (2 Bft)
07.09.2012 18:30 17,5 C 85 % 1019,5 hPa 0,0 l/m 9,8 km/h (2 Bft) NW 315 0 min 0 W/m 14,9 C 16,0 C 9,8 km/h (2 Bft)
07.09.2012 18:45 17,4 C 84 % 1019,5 hPa 0,0 l/m 9,8 km/h (2 Bft) NW 315 0 min 0 W/m 14,7 C 15,8 C 9,8 km/h (2 Bft)
07.09.2012 19:00 17,3 C 84 % 1019,5 hPa 0,0 l/m 9,8 km/h (2 Bft) NW 315 0 min 0 W/m 14,6 C 15,7 C 9,8 km/h (2 Bft)
07.09.2012 19:15 17,3 C 85 % 1019,5 hPa 0,0 l/m 9,8 km/h (2 Bft) NW 315 0 min 0 W/m 14,8 C 15,7 C 9,8 km/h (2 Bft)
07.09.2012 19:30 17,3 C 85 % 1019,5 hPa 0,0 l/m 11,9 km/h (2 Bft) N 350 0 min 0 W/m 14,8 C 15,0 C 11,9 km/h (2 Bft)
07.09.2012 19:45 17,1 C 86 % 1019,5 hPa 0,0 l/m 9,6 km/h (2 Bft) W-NW 295 0 min 0 W/m 14,7 C 15,6 C 9,6 km/h (2 Bft)
07.09.2012 20:00 16,9 C 87 % 1019,5 hPa 0,3 l/m 6,8 km/h (2 Bft) N-NW 340 0 min 0 W/m 14,7 C 16,7 C 6,8 km/h (2 Bft)
07.09.2012 20:15 16,8 C 87 % 1019,5 hPa 0,3 l/m 5,9 km/h (2 Bft) N 5 0 min 0 W/m 14,6 C 16,8 C 5,9 km/h (2 Bft)
07.09.2012 20:30 16,6 C 88 % 1019,5 hPa 0,0 l/m 10,2 km/h (2 Bft) N-NW 340 0 min 0 W/m 14,6 C 14,8 C 10,2 km/h (2 Bft)
07.09.2012 20:45 16,6 C 88 % 1019,5 hPa 0,3 l/m 9,6 km/h (2 Bft) NW 320 0 min 0 W/m 14,6 C 15,1 C 9,6 km/h (2 Bft)
07.09.2012 21:00 16,6 C 89 % 1019,5 hPa 0,3 l/m 8,8 km/h (2 Bft) NW 315 0 min 0 W/m 14,8 C 15,4 C 8,8 km/h (2 Bft)
07.09.2012 21:15 16,6 C 89 % 1019,5 hPa 0,0 l/m 9,7 km/h (2 Bft) NW 315 0 min 0 W/m 14,8 C 15,0 C 9,7 km/h (2 Bft)
07.09.2012 21:30 16,5 C 90 % 1019,5 hPa 0,3 l/m 8,5 km/h (2 Bft) NW 305 0 min 0 W/m 14,9 C 15,4 C 8,5 km/h (2 Bft)
07.09.2012 21:45 16,5 C 90 % 1019,5 hPa 0,6 l/m 9,2 km/h (2 Bft) NW 315 0 min 0 W/m 14,9 C 15,1 C 9,2 km/h (2 Bft)
07.09.2012 22:00 16,4 C 91 % 1019,5 hPa 0,3 l/m 12,6 km/h (3 Bft) NW 315 0 min 0 W/m 14,9 C 13,7 C 12,6 km/h (3 Bft)
07.09.2012 22:14 16,2 C 91 % 1019,5 hPa 0,0 l/m 17,3 km/h (3 Bft) NW 325 0 min 0 W/m 14,7 C 12,0 C 17,3 km/h (3 Bft)
07.09.2012 22:30 16,3 C 91 % 1019,5 hPa 0,3 l/m 11,5 km/h (2 Bft) NW 315 0 min 0 W/m 14,8 C 14,0 C 11,5 km/h (2 Bft)
07.09.2012 22:45 16,3 C 91 % 1019,5 hPa 0,3 l/m 12,8 km/h (3 Bft) NW 320 0 min 0 W/m 14,8 C 13,5 C 12,8 km/h (3 Bft)
07.09.2012 22:59 16,3 C 91 % 1019,5 hPa 0,0 l/m 12,8 km/h (3 Bft) NW 320 0 min 0 W/m 14,8 C 13,5 C 12,8 km/h (3 Bft)
07.09.2012 23:14 16,4 C 92 % 1019,5 hPa 0,0 l/m 12,8 km/h (3 Bft) NW 320 0 min 0 W/m 15,1 C 13,6 C 12,8 km/h (3 Bft)
07.09.2012 23:30 16,4 C 92 % 1019,5 hPa 0,0 l/m 8,3 km/h (2 Bft) W-NW 285 0 min 0 W/m 15,1 C 15,4 C 8,3 km/h (2 Bft)
07.09.2012 23:45 16,4 C 92 % 1019,5 hPa 0,0 l/m 9,0 km/h (2 Bft) NW 310 0 min 0 W/m 15,1 C 15,1 C 9,0 km/h (2 Bft)
_ Min-Zeit 00:00 00:00 05:15 - 20:15 - - - - 00:00 01:30 20:15
Minimum _ 15,0 C 73 % 1016,5 hPa - 5,9 km/h (2 Bft) - - - - 10,2 C 6,9 C 5,9 km/h (2 Bft)
_ Max-Zeit 13:00 23:14 00:00 14:15 03:45 - - 00:00 00:00 13:00 20:15 03:45
Maximum _ 18,2 C 92 % 1020,5 hPa 0,6 l/m 36,0 km/h
W-NW (5 Bft)
- - 0 min 0 W/m 16,2 C 16,8 C 36,0 km/h
W-NW (5 Bft)
Durchschnitt _ 16,5 C 85 % 1018,4 hPa #3,9 l/m 22,4 km/h (4 Bft) NW - #0 min. 0 W/m 13,9 C 11,6 C 22,4 km/h (4 Bft)
copyright by Holger Just